#timestamp,LO_Frequency,Hit,StdDev 
1583857435.9,286047018.8,P
1583857455.7,286047014.7,P
1583857475.6,286047014.7,P
1583857495.4,286047017.0,Y
1583857515.2,286047000.3,P
1583857535.1,286047002.1,N
1583857536.0,286047002.1,N
1583857555.8,286047003.1,N
1583857575.6,286047003.3,N
1583857595.5,286047005.2,N
1583857615.3,286047005.5,N
1583857635.2,286047005.3,N
1583857655.9,286047003.6,N
1583857675.7,286047002.0,N
1583857695.6,286047003.0,N
1583857715.4,286047003.5,N
1583857735.2,286047003.7,N
1583857755.1,286047001.3,N
1583857756.0,286047001.3,N
1583857775.8,286047001.8,N
1583857795.7,286047001.5,N
1583857815.5,286047003.8,N
1583857835.3,286047001.3,N
1583857855.2,286047003.4,N
1583857875.0,286047003.4,N
1583857875.9,286047003.4,N
1583857895.7,286047004.4,N
1583857915.6,286047001.8,N
1583857935.4,286047005.6,N
1583857955.3,286047004.6,N
1583857975.1,286047006.4,N
1583857995.8,286047006.1,N
1583858015.7,286047007.5,N
1583858035.5,286047005.1,N
1583858055.4,286047006.8,Y
1583858075.2,286047004.5,P
1583858095.0,286047007.3,P
1583858095.9,286047007.3,P
1583858115.8,286047006.5,Y
1583858135.6,286047000.1,P
1583858155.5,286047002.2,N
1583858175.3,286047000.3,N
1583858195.1,286047000.5,N
1583858215.9,286047001.0,N
1583858235.7,286047000.3,N
1583858255.6,286046998.6,N
1583858275.4,286046998.1,N
1583858295.2,286047000.3,N
1583858315.1,286046999.5,N
1583858316.0,286046999.5,N
1583858335.8,286046996.8,N
1583858355.6,286046999.2,N
1583858375.5,286046997.8,N
1583858395.3,286046997.2,N
1583858415.2,286046999.4,N
1583858435.9,286046998.7,N
1583858455.7,286046997.0,N
1583858475.6,286047001.1,N
1583858495.4,286046999.5,N
1583858515.3,286046996.6,N
1583858535.1,286046998.7,N
1583858536.0,286046998.7,N
1583858555.8,286047000.7,N
1583858575.7,286047000.1,N
1583858595.5,286047002.1,N
1583858615.3,286046999.8,N
1583858635.2,286047000.2,N
1583858655.0,286046999.7,N
1583858655.9,286046999.7,N
1583858675.8,286047002.8,N
1583858695.6,286047002.0,N
1583858715.4,286046998.3,N
1583858735.3,286046999.9,N
1583858755.1,286046996.5,N
1583858775.8,286046997.7,N
1583858795.7,286046999.0,N
1583858815.5,286046997.3,N
1583858835.4,286046995.8,N
1583858855.2,286046994.9,Y
1583858875.0,286046997.2,P
1583858875.9,286046997.2,P
1583858895.8,286046996.5,P
1583858915.6,286046998.3,N
1583858935.5,286046999.4,N
1583858955.3,286046998.0,N
1583858975.1,286046997.5,N
1583858995.9,286046997.1,Y
1583859015.7,286047002.3,P
1583859035.5,286047002.3,N
1583859055.4,286047002.3,N
1583859075.2,286047001.4,N
1583859095.1,286047002.4,N
1583859096.0,286047002.4,N
1583859115.8,286047001.5,N
1583859135.6,286047002.0,N
1583859155.5,286047002.5,N
1583859175.3,286047003.7,N
1583859195.1,286047003.1,N
1583859215.9,286047003.0,N
1583859235.7,286047001.8,N
1583859255.6,286047001.8,N
1583859275.4,286047000.5,N
1583859295.2,286046999.4,N
1583859315.1,286047011.9,Y
1583859316.0,286046999.1,P
1583859335.8,286046997.4,N
1583859355.6,286046999.0,N
1583859375.5,286046999.0,N
1583859395.3,286046996.5,N
1583859415.2,286046996.7,N
1583859435.9,286046997.3,N
1583859455.7,286046997.8,N
1583859475.6,286046995.1,Y
1583859495.4,286046997.4,P
1583859515.2,286046997.4,P
1583859535.1,286046997.5,P
1583859536.0,286046997.5,Y
1583859555.8,286046998.5,P
1583859575.7,286047001.0,N
1583859595.5,286047000.3,N
